Agadir Al Massira, Morocco

8:06 PM WET on June 28, 2017 (GMT +0000)
Agadir Al Massira

Weather History for GMAD - October, 2013

Change the Weather History Date:

Friday, October 25, 2013

  Actual Average Record
Temperature  
Mean Temperature 66 °F -  
Max Temperature 79 °F - - ()
Min Temperature 54 °F - - ()
Cooling Degree Days 2    
Growing Degree Days 16 (Base 50)    
Moisture  
Dew Point 61 °F    
Average Humidity 71    
Maximum Humidity 94    
Minimum Humidity 46    
Precipitation  
Precipitation 0.00 in - - ()
Sea Level Pressure  
Sea Level Pressure 29.97 in    
Wind  
Wind Speed 6 mph ()    
Max Wind Speed 15 mph    
Max Gust Speed -    
Visibility 6.1 miles    
Events      
T = Trace of Precipitation, MM = Missing Value Source: Averaged Metar Reports

Daily Weather History Graph

Daily Weather History Graph

Search for Another Location

Airport or City:

Trip Planner

Search our weather history database for the weather conditions in past years. The results will help you decide how hot, cold, wet, or windy it might be!

Date:

Astronomy

Oct. 25, 2013 Rise Set
Actual Time 7:46 AM WEST 6:56 PM WEST
Civil Twilight 7:22 AM WEST 7:20 PM WEST
Nautical Twilight 6:54 AM WEST 7:48 PM WEST
Astronomical Twilight 6:26 AM WEST 8:16 PM WEST
Moon No Moon Rise 1:11 PM WEST (10/25)
Length of Visible Light 11h 58m
Length of Day
11h 09m
Waning Gibbous, 64% of the Moon is Illuminated
Oct 25
Waning Gibbous
Oct 27
Last Quarter
Nov 3
New
Nov 10
First Quarter
Nov 17
Full

Hourly Weather History & Observations

Time (WEST) Temp. Dew Point Humidity Pressure Visibility Wind Dir Wind Speed Gust Speed Precip Events Conditions
12:00 AM 66.2 °F 62.6 °F 88% 29.98 in 6.2 mi NE 5.8 mph - N/A   Scattered Clouds
1:00 AM - - %  in 6 mi Calm Calm - -   Partly Cloudy
1:00 AM - - N/A% 0.00 in - North - - N/A   Scattered Clouds
4:00 AM 63 °F 58 °F 78% 29.90 in - NNW 4.6 mph - -  
7:00 AM 64 °F 62 °F 89% 29.91 in 5 mi SSW 5.8 mph - -   Mostly Cloudy
7:00 AM - - N/A% 0.00 in - North - - N/A   Partly Cloudy
8:00 AM 64.4 °F 62.6 °F 94% 29.92 in 6.2 mi South 5.8 mph - N/A   Scattered Clouds
9:00 AM 64.4 °F 62.6 °F 94% 29.95 in 6.2 mi SSW 3.5 mph - N/A   Scattered Clouds
10:00 AM 67 °F 64 °F 88% 29.99 in 6 mi West 5.8 mph - -   Mostly Cloudy
11:00 AM 71.6 °F 64.4 °F 78% 29.98 in 6.2 mi SSW 3.5 mph - N/A   Mostly Cloudy
12:00 PM 75.2 °F 60.8 °F 61% 30.01 in 6.2 mi SSW 4.6 mph - N/A   Scattered Clouds
1:00 PM 77 °F 60 °F 46% 29.99 in - WSW 5.8 mph - -  
1:00 PM 77.0 °F 60.8 °F 57% 29.98 in 6.2 mi Variable 5.8 mph - N/A   Unknown
2:00 PM 78.8 °F 59.0 °F 51% 29.95 in 6.2 mi WSW 6.9 mph - N/A   Mostly Cloudy
3:00 PM 77.0 °F 60.8 °F 57% 29.95 in 6.2 mi West 13.8 mph - N/A   Mostly Cloudy
4:00 PM 75 °F 62 °F 56% 29.96 in 6 mi West 12.7 mph - -   Partly Cloudy
4:00 PM 75.2 °F 62.6 °F 65% 29.95 in 6.2 mi West 12.7 mph - N/A   Mostly Cloudy
5:00 PM 73.4 °F 62.6 °F 69% 29.95 in 6.2 mi West 12.7 mph - N/A   Mostly Cloudy
6:00 PM 69.8 °F 62.6 °F 78% 29.98 in 6.2 mi West 15.0 mph - N/A   Mostly Cloudy
7:00 PM 70 °F 60 °F 62% 29.98 in 6 mi SW 4.6 mph - -   Partly Cloudy
7:00 PM 69.8 °F 59.0 °F 68% 29.98 in 6.2 mi SW 4.6 mph - N/A   Mostly Cloudy
8:00 PM 69.8 °F 60.8 °F 73% 29.98 in 6.2 mi SW 8.1 mph - N/A   Mostly Cloudy
9:00 PM 69.8 °F 60.8 °F 73% 29.98 in 6.2 mi SW 8.1 mph - N/A   Mostly Cloudy
10:00 PM 70 °F 59 °F 61% 30.01 in 6 mi SW 6.9 mph - -   Scattered Clouds
10:00 PM 69.8 °F 59.0 °F 68% 30.01 in 6.2 mi SW 6.9 mph - N/A   Mostly Cloudy
11:00 PM 69.8 °F 59.0 °F 68% 30.01 in 6.2 mi SW 5.8 mph - N/A   Mostly Cloudy